Location: Banios
(43.0451°N, 0.2335°E)
Time: 09:36:54
(UTC+00:00)

A-11 Canister half - Pass Details

Date: 16 May 2021
Orbit: 1527 x 1681 km, 47.3° (Epoch: 22 June)

Event Time Altitude Azimuth Distance (km) Brightness Sun altitude
Rises 07:59:26 0° 229° (SW) 4,691 11.2 35.4°
Reaches altitude 10° 08:02:28 10° 226° (SW) 3,724 10.8 36.0°
Maximum altitude 08:11:47 67° 147° (SSE) 1,688 10.2 37.7°
Drops below altitude 10° 08:21:26 10° 67° (ENE) 3,851 12.0 39.4°
Sets 08:24:37 0° 65° (ENE) 4,859 12.2 40.0°
